Location: Avully
(45.9633°N, 6.0228°E)
Time: 03:35:10
(UTC+00:00)

Cosmos 1300 Rocket - Pass Details

Date: 23 May 2024
Orbit: 597 x 623 km, 82.5° (Epoch: 21 June)

Event Time Altitude Azimuth Distance (km) Brightness Sun altitude
Rises 01:11:24 0° 355° (N) 2,874 8.0 -19.7°
Reaches altitude 10° 01:13:41 10° 1° (N) 1,961 7.1 -19.6°
Maximum altitude 01:17:54 50° 77° (ENE) 774 4.2 -19.2°
Enters shadow 01:20:31 21° 145° (SE) 1,358 5.0 -19.0°
